Overview Statistics Trail Chart Weather Telemetry Raw packets
 

This is the latest recevied weather packets stored in our database for station/object K7FLA. If no packets are shown the sender has not sent any weather packets the latest 10 day(s).

<< 96 97 98 99 100 101 102 >>
Time Temp. Humidity Pressure Rain* Wind** Luminosity Snow
1787945422 40.56° C 22% 1096 hPa 0 mm - 779 W/m² -
1787945118 41.11° C 21% 1096.1 hPa 0 mm - 790 W/m² -
1787944809 40.56° C 23% 1096 hPa 0 mm - 788 W/m² -
1787944514 40.56° C 21% 1095.7 hPa 0 mm - 790 W/m² -
1787944200 40.56° C 21% 1096 hPa 0 mm - 790 W/m² -
1787943900 40.56° C 21% 1095.9 hPa 0 mm - 806 W/m² -
1787943594 40.56° C 22% 1096.2 hPa 0 mm - 742 W/m² -
1787943289 41.11° C 22% 1096.2 hPa 0 mm - 782 W/m² -
1787942984 41.11° C 22% 1096.3 hPa 0 mm - 783 W/m² -
1787942680 41.11° C 21% 1096.2 hPa 0 mm - 780 W/m² -
1787942379 41.11° C 21% 1096.2 hPa 0 mm - 768 W/m² -
1787942074 40.56° C 22% 1096.2 hPa 0 mm - 725 W/m² -
1787941770 40° C 23% 1096.2 hPa 0 mm - 763 W/m² -
1787941468 40° C 22% 1096.5 hPa 0 mm - 753 W/m² -
1787941168 40.56° C 20% 1096.3 hPa 0 mm - 747 W/m² -
1787940862 40.56° C 22% 1096.3 hPa 0 mm - 740 W/m² -
1787940561 40.56° C 21% 1096.3 hPa 0 mm - 743 W/m² -
1787940255 40.56° C 22% 1096.4 hPa 0 mm - 727 W/m² -
1787939950 40.56° C 22% 1096.6 hPa 0 mm - 725 W/m² -
1787939649 40.56° C 21% 1096.5 hPa 0 mm - 718 W/m² -
1787939344 40.56° C 23% 1096.6 hPa 0 mm - 695 W/m² -
1787939044 40.56° C 24% 1096.5 hPa 0 mm - 698 W/m² -
1787938742 40.56° C 23% 1096.5 hPa 0 mm - 687 W/m² -
1787938439 40.56° C 26% 1096.6 hPa 0 mm - 668 W/m² -
1787938135 40° C 22% 1096.6 hPa 0 mm - 664 W/m² -

* Rain latest hour (hover to see other rain measurements)
** Current wind speed in m/s (hover to see current wind gust speed)